[[{"header":{"parameterUnit":"m.s-1","parameterCategory":1,"la1":30.2991,"la2":30.254,"lo1":-89.0895,"lo2":-89.0444,"dy":0.0017,"dx":0.0017,"nx":28,"ny":28,"refTime":"2025-11-23T09:00:00:Z","depth":0,"parameterNumber":2,"parameterNumberName":"U-component_of_WINDS"},"data":[0,0,0,0,0,0,0,0,0,0,0,0,0,0,0,0,0,0,0,0,0,0,0,0,0,0,0,0,0,0,0,0,0,0,0,0,0,0,0,0,0,0,0,0,0,0,0,0,0,0,0,0,0,0,0,0,0,0,-0.0792,-0.0792,0,-0.0797,-0.0797,-0.0797,-0.079,-0.079,-0.079,-0.079,-0.0795,-0.0796,-0.0796,0,0,0,0,0,0,0,0,0,0,0,0,0,-0.0777,-0.0777,-0.0792,-0.0792,-0.0793,-0.0797,-0.0797,-0.0797,-0.079,-0.079,-0.079,-0.0789,-0.0795,-0.0795,-0.0796,0,0,0,0,0,0,0,0,0,0,0,0,0,-0.0783,-0.0777,-0.0792,-0.079,-0.0789,-0.0797,-0.0797,-0.0797,-0.079,-0.079,-0.079,-0.0789,-0.0795,-0.0795,-0.0796,-0.0807,0,0,-0.0798,-0.0798,0,0,0,0,0,0,0,0,-0.0783,-0.0784,-0.079,-0.079,-0.079,-0.0793,-0.0794,-0.0801,-0.079,-0.079,-0.079,-0.0789,-0.0795,-0.0795,-0.0797,-0.0807,-0.0808,-0.0798,-0.0798,-0.0798,-0.0799,0,0,0,0,0,0,0,-0.0782,-0.0783,-0.0794,-0.079,-0.079,-0.0788,-0.0788,-0.0795,-0.0794,-0.079,-0.0789,-0.079,-0.0795,-0.0797,-0.0797,-0.0808,-0.0798,-0.0798,-0.0799,-0.0799,-0.0827,-0.0827,0,0,0,0,0,0,-0.0782,-0.0783,-0.0794,-0.0795,-0.0785,-0.0789,-0.0789,-0.0792,-0.0794,-0.0794,-0.079,-0.079,-0.0796,-0.0796,-0.0797,-0.081,-0.0798,-0.0799,-0.0799,-0.0827,-0.0827,-0.0828,0,0,0,0,0,0,-0.0782,-0.0783,-0.0794,-0.0789,-0.079,-0.0789,-0.0793,-0.0792,-0.0794,-0.0795,-0.0795,-0.0793,-0.0795,-0.0796,-0.0805,-0.081,-0.0799,-0.08,-0.0826,-0.0827,-0.0827,-0.0837,0,0,0,0,0,0,-0.0781,-0.0783,-0.0787,-0.0789,-0.079,-0.0801,-0.0793,-0.0793,-0.0795,-0.0795,-0.0797,-0.0797,-0.0795,-0.0804,-0.0805,-0.0811,-0.08,-0.0826,-0.0826,-0.0827,-0.0836,-0.0838,-0.0839,0,0,0,0,0,-0.0781,-0.079,-0.0788,-0.0789,-0.0796,-0.0802,-0.0803,-0.08,-0.0796,-0.08,-0.08,-0.0797,-0.0809,-0.0805,-0.0806,-0.0812,-0.0825,-0.0826,-0.0827,-0.0835,-0.0837,-0.0839,0,0,0,0,0,0,-0.079,-0.079,-0.0788,-0.0798,-0.08,-0.08,-0.0806,-0.0803,-0.0806,-0.0805,-0.0803,-0.0803,-0.0812,-0.0813,-0.0808,-0.0823,-0.0817,-0.0818,-0.0822,-0.0824,-0.0826,-0.0825,-0.0801,0,0,0,0,0,-0.0793,-0.0798,-0.0798,-0.0807,-0.0808,-0.0807,-0.0809,-0.0807,-0.081,-0.081,-0.0811,-0.0813,-0.0818,-0.0821,-0.0825,-0.0836,-0.0836,-0.0841,-0.0842,-0.0843,-0.0845,-0.085,-0.0852,-0.0831,-0.0831,-0.083,0,0,-0.08,-0.08,-0.0804,-0.0809,-0.081,-0.0815,-0.0807,-0.0813,-0.0817,-0.0811,-0.0819,-0.082,-0.0822,-0.0831,-0.0835,-0.0832,-0.085,-0.0845,-0.0846,-0.0846,-0.0851,-0.0853,-0.0855,-0.0831,-0.0831,-0.0831,0,0,-0.0814,-0.0815,-0.0823,-0.0824,-0.0826,-0.0825,-0.0827,-0.0828,-0.0828,-0.0835,-0.0831,-0.0835,-0.0843,-0.0845,-0.0847,-0.0861,-0.0858,-0.0863,-0.0871,-0.0876,-0.0878,-0.0879,-0.0884,-0.0886,-0.0864,-0.0864,-0.0864,0,-0.0823,-0.083,-0.0827,-0.0833,-0.0835,-0.0829,-0.0837,-0.0838,-0.0842,-0.0843,-0.0839,-0.0849,-0.085,-0.0859,-0.0863,-0.0864,-0.0866,-0.0863,-0.0878,-0.0879,-0.088,-0.0885,-0.0887,-0.0864,-0.0864,-0.0864,-0.0864,0,-0.084,-0.0845,-0.085,-0.0853,-0.0856,-0.0863,-0.086,-0.0864,-0.0861,-0.086,-0.0868,-0.0869,-0.0873,-0.0875,-0.0873,-0.0884,-0.0882,-0.0878,-0.0872,-0.0883,-0.0887,-0.0889,-0.0865,-0.0865,-0.0865,-0.0865,0,0,-0.0861,-0.0862,-0.0864,-0.0865,-0.0866,-0.087,-0.0876,-0.088,-0.0882,-0.0884,-0.089,-0.0896,-0.0892,-0.0894,-0.0892,-0.0896,-0.0907,-0.0892,-0.0892,-0.0895,-0.0919,-0.0923,-0.0925,-0.0905,-0.0905,-0.0906,-0.0919,0,-0.0876,-0.0886,-0.0883,-0.0894,-0.0898,-0.0893,-0.0898,-0.0899,-0.0898,-0.0902,-0.0901,-0.0906,-0.09,-0.0902,-0.0906,-0.0905,-0.0912,-0.0904,-0.091,-0.091,-0.091,-0.0927,-0.0931,-0.0944,-0.0921,-0.0921,-0.0921,0,-0.0895,-0.0897,-0.0908,-0.0908,-0.091,-0.0914,-0.0917,-0.0921,-0.0922,-0.0921,-0.0923,-0.092,-0.0926,-0.0919,-0.0927,-0.0921,-0.0923,-0.0923,-0.0923,-0.0924,-0.0917,-0.0929,-0.0948,-0.095,-0.0924,-0.0924,-0.0924,0,-0.0909,-0.0915,-0.0922,-0.0923,-0.0923,-0.0927,-0.0927,-0.0928,-0.093,-0.0932,-0.0934,-0.0937,-0.0938,-0.0941,-0.0938,-0.0934,-0.0947,-0.094,-0.0946,-0.0946,-0.095,-0.095,-0.097,-0.095,-0.095,-0.095,-0.095,0,-0.0926,-0.0933,-0.0929,-0.0933,-0.0941,-0.0937,-0.0944,-0.0944,-0.0944,-0.0948,-0.0944,-0.0948,-0.0944,-0.0948,-0.0946,-0.0953,-0.0953,-0.0953,-0.0952,-0.0953,-0.0954,-0.0955,-0.0954,-0.0951,-0.0951,-0.0951,-0.0951,0,-0.0944,-0.0942,-0.0949,-0.0948,-0.0948,-0.0953,-0.0953,-0.0957,-0.0955,-0.096,-0.0961,-0.0959,-0.0963,-0.0961,-0.0965,-0.0964,-0.0972,-0.0971,-0.0972,-0.0972,-0.0978,-0.0978,-0.1,-0.1003,-0.0982,-0.0982,-0.0982,0,-0.0956,-0.0961,-0.096,-0.0962,-0.0962,-0.0966,-0.0968,-0.0964,-0.0967,-0.0968,-0.0972,-0.0975,-0.0978,-0.0984,-0.0983,-0.0986,-0.0984,-0.0992,-0.0985,-0.0986,-0.0984,-0.0984,-0.0985,-0.0994,-0.0994,-0.0994,-0.0994,0,-0.0976,-0.0974,-0.0977,-0.0979,-0.0981,-0.0983,-0.0984,-0.0986,-0.0982,-0.0985,-0.0989,-0.0991,-0.0995,-0.0998,-0.1,-0.1001,-0.0997,-0.0996,-0.0998,-0.0999,-0.1,-0.1,-0.0976,-0.0996,-0.0996,-0.0996,-0.0996,-0.0995,-0.0991,-0.0995,-0.0995,-0.0998,-0.0998,-0.0999,-0.1003,-0.1001,-0.1004,-0.1007,-0.1004,-0.1009,-0.1009,-0.1012,-0.1012,-0.1016,-0.1013,-0.1015,-0.1016,-0.1017,-0.1018,-0.0999,-0.1016,-0.1016,-0.1016,-0.1016,-0.1016,0,-0.1011,-0.101,-0.1013,-0.1014,-0.1017,-0.1012,-0.1013,-0.1016,-0.102,-0.102,-0.1022,-0.1026,-0.103,-0.1028,-0.1031,-0.1034,-0.1032,-0.1035,-0.1035,-0.1035,-0.102,-0.1019,-0.1036,-0.1036,-0.1036,-0.1036,-0.1036,-0.1036,-0.1021,-0.1028,-0.1026,-0.1032,-0.1031,-0.1035,-0.1036,-0.1037,-0.1038,-0.1042,-0.1045,-0.1043,-0.1043,-0.1046,-0.1048,-0.1048,-0.1049,-0.1052,-0.1051,-0.1038,-0.1036,-0.1034,-0.1032,-0.1052,-0.1052,-0.1065,-0.1065,-0.1066]},{"header":{"parameterUnit":"m.s-1","parameterCategory":1,"la1":30.2991,"la2":30.254,"lo1":-89.0895,"lo2":-89.0444,"dy":0.0017,"dx":0.0017,"nx":28,"ny":28,"refTime":"2025-11-23T09:00:00:Z","depth":0,"parameterNumber":3,"parameterNumberName":"V-component_of_WINDS"},"data":[0,0,0,0,0,0,0,0,0,0,0,0,0,0,0,0,0,0,0,0,0,0,0,0,0,0,0,0,0,0,0,0,0,0,0,0,0,0,0,0,0,0,0,0,0,0,0,0,0,0,0,0,0,0,0,0,0,0,-4.5329,-4.533,0,-4.5452,-4.5453,-4.5454,-4.5438,-4.5436,-4.5434,-4.5432,-4.5549,-4.5554,-4.5559,0,0,0,0,0,0,0,0,0,0,0,0,0,-4.5074,-4.5079,-4.5329,-4.5331,-4.5332,-4.5451,-4.5453,-4.5455,-4.5438,-4.5435,-4.5433,-4.5431,-4.5548,-4.5554,-4.556,0,0,0,0,0,0,0,0,0,0,0,0,0,-4.519,-4.5081,-4.5329,-4.5338,-4.534,-4.5451,-4.5453,-4.5455,-4.5438,-4.5435,-4.5432,-4.543,-4.5546,-4.5553,-4.556,-4.5667,0,0,-4.5583,-4.5587,0,0,0,0,0,0,0,0,-4.5183,-4.5199,-4.5335,-4.5338,-4.534,-4.5426,-4.5406,-4.5526,-4.5439,-4.5401,-4.5432,-4.5428,-4.551,-4.5521,-4.555,-4.5673,-4.5678,-4.5584,-4.5589,-4.5592,-4.5594,0,0,0,0,0,0,0,-4.5175,-4.5194,-4.5377,-4.5337,-4.534,-4.5334,-4.5347,-4.5429,-4.5471,-4.5404,-4.5403,-4.5418,-4.5511,-4.5543,-4.5553,-4.5679,-4.5584,-4.559,-4.5595,-4.5598,-4.5897,-4.59,0,0,0,0,0,0,-4.5166,-4.5187,-4.5373,-4.5381,-4.5253,-4.5342,-4.5356,-4.5402,-4.547,-4.5478,-4.5421,-4.5417,-4.5531,-4.5544,-4.5557,-4.5687,-4.5592,-4.5599,-4.5603,-4.5894,-4.5898,-4.5902,0,0,0,0,0,0,-4.516,-4.5182,-4.5368,-4.5284,-4.5307,-4.5349,-4.54,-4.5406,-4.5437,-4.5483,-4.5489,-4.5446,-4.5529,-4.5546,-4.5641,-4.5691,-4.5602,-4.5609,-4.589,-4.5895,-4.59,-4.5948,0,0,0,0,0,0,-4.5153,-4.5181,-4.5223,-4.5285,-4.5312,-4.5452,-4.5404,-4.541,-4.5451,-4.5448,-4.5508,-4.5515,-4.5528,-4.563,-4.5648,-4.57,-4.5615,-4.5885,-4.5892,-4.5898,-4.5942,-4.5955,-4.5965,0,0,0,0,0,-4.5144,-4.5229,-4.5225,-4.5248,-4.5366,-4.5455,-4.547,-4.5486,-4.5455,-4.5498,-4.5527,-4.5513,-4.5683,-4.5639,-4.566,-4.5715,-4.5882,-4.589,-4.5898,-4.5937,-4.5952,-4.5965,0,0,0,0,0,0,-4.5168,-4.5238,-4.5233,-4.5342,-4.5394,-4.5452,-4.5506,-4.5501,-4.556,-4.5554,-4.5569,-4.5582,-4.5679,-4.5706,-4.5657,-4.5822,-4.5778,-4.579,-4.5801,-4.5815,-4.5826,-4.5818,-4.5621,0,0,0,0,0,-4.5187,-4.5256,-4.5312,-4.5402,-4.5429,-4.5463,-4.5502,-4.5511,-4.5563,-4.5584,-4.562,-4.567,-4.5734,-4.5776,-4.5838,-4.5947,-4.5959,-4.5994,-4.6005,-4.6015,-4.6025,-4.6085,-4.6102,-4.5927,-4.5927,-4.5927,0,0,-4.5225,-4.5271,-4.5313,-4.5409,-4.5449,-4.5519,-4.5481,-4.5556,-4.5607,-4.5594,-4.5687,-4.5716,-4.5772,-4.5874,-4.5921,-4.59,-4.6076,-4.6024,-4.6031,-4.6037,-4.6095,-4.6111,-4.6126,-4.5932,-4.5931,-4.593,0,0,-4.533,-4.5372,-4.5453,-4.5496,-4.556,-4.5582,-4.5602,-4.5662,-4.5682,-4.5776,-4.5768,-4.5828,-4.5939,-4.598,-4.6015,-4.6139,-4.6129,-4.6159,-4.6217,-4.6276,-4.629,-4.6302,-4.6346,-4.6362,-4.6169,-4.6169,-4.6169,0,-4.5368,-4.5476,-4.5495,-4.5572,-4.5614,-4.5609,-4.5691,-4.573,-4.5809,-4.5837,-4.5813,-4.5954,-4.5991,-4.6104,-4.6135,-4.6163,-4.6185,-4.6151,-4.6287,-4.6299,-4.6311,-4.6353,-4.637,-4.6172,-4.6172,-4.6171,-4.6171,0,-4.552,-4.5595,-4.5652,-4.5733,-4.5781,-4.586,-4.5889,-4.5936,-4.594,-4.5965,-4.6061,-4.6106,-4.6178,-4.6205,-4.6209,-4.6319,-4.6304,-4.6283,-4.6239,-4.633,-4.6371,-4.6387,-4.6177,-4.6176,-4.6175,-4.6174,0,0,-4.5642,-4.5735,-4.5756,-4.5794,-4.5864,-4.5921,-4.6,-4.6073,-4.6113,-4.6168,-4.6233,-4.6329,-4.6311,-4.6351,-4.6359,-4.6411,-4.6507,-4.6384,-4.6385,-4.6405,-4.6632,-4.6648,-4.6666,-4.6501,-4.6504,-4.6507,-4.6627,0,-4.5755,-4.5897,-4.5917,-4.6042,-4.6111,-4.6109,-4.6177,-4.6227,-4.6253,-4.6313,-4.634,-4.6409,-4.6379,-4.6404,-4.6455,-4.6485,-4.6553,-4.6476,-4.6561,-4.6564,-4.6547,-4.6687,-4.6704,-4.6815,-4.6643,-4.6646,-4.6648,0,-4.5905,-4.5968,-4.6101,-4.6165,-4.6194,-4.6256,-4.6326,-4.6384,-4.6441,-4.6456,-4.6503,-4.6505,-4.6585,-4.6538,-4.6648,-4.6596,-4.6631,-4.6651,-4.6656,-4.6664,-4.6611,-4.6699,-4.6851,-4.6868,-4.6673,-4.6671,-4.6669,0,-4.5982,-4.61,-4.6195,-4.6227,-4.6303,-4.6347,-4.638,-4.6434,-4.6478,-4.6538,-4.6566,-4.6633,-4.667,-4.6722,-4.6742,-4.6706,-4.6851,-4.6805,-4.6865,-4.6864,-4.6895,-4.6893,-4.7055,-4.6918,-4.6918,-4.6917,-4.6917,0,-4.6105,-4.6186,-4.6231,-4.6289,-4.638,-4.6403,-4.6491,-4.6522,-4.6571,-4.6634,-4.6635,-4.6694,-4.6718,-4.678,-4.6796,-4.6885,-4.6901,-4.6914,-4.6918,-4.6915,-4.6913,-4.6938,-4.6931,-4.6922,-4.6921,-4.692,-4.6919,0,-4.6206,-4.6239,-4.6343,-4.6408,-4.6427,-4.6491,-4.6546,-4.6602,-4.6628,-4.6708,-4.6728,-4.6768,-4.6842,-4.6868,-4.6956,-4.6967,-4.707,-4.7067,-4.7052,-4.7053,-4.7111,-4.7106,-4.7295,-4.7321,-4.7167,-4.7168,-4.7169,0,-4.6282,-4.6346,-4.6419,-4.6464,-4.65,-4.657,-4.6616,-4.664,-4.6687,-4.6758,-4.6805,-4.6879,-4.694,-4.7057,-4.7093,-4.716,-4.7159,-4.722,-4.7168,-4.7164,-4.716,-4.7156,-4.7163,-4.723,-4.7231,-4.7233,-4.7234,0,-4.6415,-4.643,-4.6497,-4.6571,-4.6626,-4.6685,-4.6741,-4.6776,-4.6809,-4.6861,-4.6939,-4.6986,-4.7079,-4.7152,-4.7222,-4.7253,-4.7249,-4.725,-4.7268,-4.7265,-4.7254,-4.7262,-4.7079,-4.7245,-4.7244,-4.7243,-4.7243,-4.7242,-4.6507,-4.6564,-4.6626,-4.6701,-4.6747,-4.68,-4.6857,-4.6892,-4.6958,-4.7037,-4.7047,-4.713,-4.7185,-4.728,-4.7315,-4.7379,-4.7362,-4.7387,-4.7393,-4.7399,-4.7404,-4.7245,-4.7392,-4.7391,-4.7391,-4.7391,-4.7391,0,-4.664,-4.6681,-4.675,-4.6831,-4.6891,-4.6885,-4.6948,-4.6997,-4.7071,-4.7125,-4.7186,-4.7275,-4.7347,-4.7389,-4.7461,-4.7504,-4.7504,-4.7522,-4.7519,-4.7527,-4.7415,-4.7393,-4.7521,-4.7521,-4.7521,-4.7521,-4.7521,-4.7521,-4.6717,-4.6814,-4.6835,-4.6954,-4.6993,-4.7078,-4.7114,-4.7163,-4.7207,-4.7308,-4.7369,-4.7397,-4.7447,-4.7522,-4.7587,-4.7598,-4.7624,-4.7644,-4.7653,-4.7548,-4.7534,-4.7521,-4.7501,-4.765,-4.765,-4.7759,-4.776,-4.7761]}]]